Regional Weather Roundup
Issued by NWS

Home | Current Version | Previous Version | Graphics & Text | Print | Product List | Glossary On
Versions: 1 2 3 4 5 6 7 8 9 10 11 12 13 14 15 16 17 18 19 20 21 22 23 24 25 26 27 28 29 30 31 32 33 34 35 36 37 38 39 40 41 42 43 44 45 46 47 48 49 50
933
ASUS43 KOAX 170510
RWRNE

WEATHER ROUNDUP FOR NEBRASKA
NATIONAL WEATHER SERVICE OMAHA NE
1100 PM CST SAT DEC 16 2017

NOTES: SATELLITE DATA IS BEING USED TO AUGMENT CLOUD COVER ABOVE
       12000 FEET.
       "FAIR" INDICATES FEW OR NO CLOUDS BELOW 12,000 FEET WITH NO
       SIGNIFICANT WEATHER AND/OR OBSTRUCTIONS TO VISIBILITY.


NEZ001>004-019>022-054>056-170600-
NEBRASKA PANHANDLE

CITY           SKY/WX    TMP DP  RH WIND       PRES   REMARKS
SCOTTSBLUFF    CLOUDY    33  27  78 E8        30.01R WCI  26
ALLIANCE       CLOUDY    31  27  85 NE10      30.00S WCI  22
CHADRON        CLOUDY    30  26  85 NE5       30.04S WCI  25
GORDON         CLOUDY    32  29  88 NE3       30.02R
KIMBALL        CLOUDY    30  29  95 NE9       29.97R WCI  22
SIDNEY         CLOUDY    32  29  88 E13       29.97S WCI  22
$$

NEZ057>060-069>072-079>082-170600-
SOUTHWEST NEBRASKA

CITY           SKY/WX    TMP DP  RH WIND       PRES   REMARKS
NORTH PLATTE   CLOUDY    38  33  82 NE18      29.97R WCI  28
IMPERIAL       CLOUDY    36  33  89 NE10      29.97R WCI  28
LEXINGTON      CLOUDY    36  32  85 NE15      29.97S WCI  27
MCCOOK         CLEAR     31  29  92 NE14      29.94R WCI  21
OGALLALA       CLOUDY    37  32  83 NE13      29.99S WCI  28
$$

NEZ005>010-023>029-035>040-094-170600-
NORTH CENTRAL NEBRASKA

CITY           SKY/WX    TMP DP  RH WIND       PRES   REMARKS
VALENTINE      CLOUDY    37  31  78 N10       30.04S WCI  30
AINSWORTH      CLOUDY    36  33  92 N6        30.03R WCI  31
BROKEN BOW     CLOUDY    38  33  82 NE14      29.98R WCI  30
O`NEILL        CLOUDY    35  35  99 N9        30.03S WCI  28
ORD            CLOUDY    37  33  85 N8        30.01R WCI  31
THEDFORD       CLOUDY    37  32  84 NE10      30.02S WCI  29
$$

NEZ041-046>049-061>064-073>077-083>087-170600-
SOUTH CENTRAL NEBRASKA

CITY           SKY/WX    TMP DP  RH WIND       PRES   REMARKS
GRAND ISLAND   CLOUDY    32  31  96 N12       29.98R WCI  23
AURORA         CLOUDY    32  30  92 N13       29.97S WCI  22
HASTINGS       CLOUDY    33  29  85 NE15      29.95F WCI  23
HEBRON         MOCLDY    35  26  68 NE3       29.92F
HOLDREGE       CLEAR     32  31  95 N14       29.95R WCI  22
KEARNEY        CLOUDY    31  29  92 N16       29.98R WCI  20
YORK           CLOUDY    32  32 100 N13       29.97S WCI  22
$$

NEZ011>018-030>034-042>045-170600-
NORTHEAST NEBRASKA

CITY           SKY/WX    TMP DP  RH WIND       PRES   REMARKS
NORFOLK        CLOUDY    34  29  82 NE9       30.00R WCI  27
ALBION         CLOUDY    35  31  87 NE8       30.02R WCI  28
BLAIR          CLOUDY    36  29  76 N10       29.98R WCI  28
COLUMBUS       CLOUDY    33  28  81 NE8       30.01R WCI  26
FREMONT        CLOUDY    36  29  76 NE3       30.00R
TEKAMAH        PTCLDY    29  22  75 N10       30.00S WCI  20
WAYNE          CLEAR     29  28  96 N6        30.01F WCI  23
$$

NEZ050>053-065>068-078-088>093-170600-
SOUTHEAST NEBRASKA

CITY           SKY/WX    TMP DP  RH WIND       PRES   REMARKS
LINCOLN        PTCLDY    35  27  72 N9        29.96S WCI  28
OMAHA EPPLEY   CLOUDY    35  26  69 N6        29.99R WCI  30
BEATRICE       CLOUDY    36  25  64 NE8       29.93S WCI  30
FALLS CITY     CLOUDY    36  24  62 CALM      29.94R
NEBRASKA CITY  CLOUDY    36  25  64 N3        29.95R
PLATTSMOUTH    PTCLDY    36  27  69 N7        29.96R WCI  31
$$

NEZ044-045-051>053-067-170600-
OMAHA AREA

CITY           SKY/WX    TMP DP  RH WIND       PRES   REMARKS
OMAHA EPPLEY   CLOUDY    35  26  69 N6        29.99R WCI  30
BLAIR          CLOUDY    36  29  76 N10       29.98R WCI  28
FREMONT        CLOUDY    36  29  76 NE3       30.00R
MILLARD        CLOUDY    41  30  66 NE7       29.98R
OFFUTT AFB     PTCLDY    38  27  64 NE13      29.97R WCI  30
PLATTSMOUTH    PTCLDY    36  27  69 N7        29.96R WCI  31
WAHOO          FAIR      30  25  82 N7        29.99R WCI  23
$$




USA.gov is the U.S. government's official web portal to all federal, state and local government web resources and services.